Home   Weather   Heilbronn   Past weeks

Flag for Germany Past Weather in Heilbronn, Baden-Württemberg, Germany — Yesterday and Last 2 Weeks

Now
10 °F

Ice fog.


Feels Like: 10 °F
Forecast: 12 / 22 °F
Wind: 1 mph from North

Location: Stuttgart-Echterdingen

Current Time: Jan 22, 2017 at 7:03:55 am

Latest Report: Jan 22, 2017 at 6:20 am


Visibility: 3 mi

Pressure: 30.24 "Hg

Humidity: 92%

Dew Point: 9 °F

Location of HeilbronnLocation

Past Weather in Heilbronn — Graph

°F

Heilbronn Temperature Yesterday

Maximum temperature yesterday: 32 °F (at 2:50 pm)
Minimum temperature yesterday: 10 °F (at 5:50 am)
Average temperature yesterday: 19 °F

High & Low Weather Summary for the Past Weeks

 TemperatureHumidityPressure
High43 °F (Jan 13, 12:20 am)100% (Jan 8, 6:50 am)30.57 "Hg (Jan 8, 6:50 am)
Low9 °F (Jan 7, 5:20 am)55% (Jan 20, 1:20 pm)29.33 "Hg (Jan 13, 12:20 am)
Average28 °F82%30.17 "Hg
* Reported Jan 7 5:20 am — Jan 22 5:50 am, Heilbronn, Weather by CustomWeather, © 2017

Note: Actual official high and low records may vary slightly from our data, if they occured in-between our weather recording intervals... More about our weather records

Advertising

Heilbronn Weather History for the Previous 24 Hours

Scroll right to see more
 ConditionsComfort  
Time TempWeatherWind HumidityBarometerVisibility
5:50 am
Sun, Jan 22
10 °FIce fog.2 mph92%30.24 "Hg3 mi
5:20 am10 °FIce fog.1 mph92%30.27 "Hg2 mi
4:50 am12 °FIce fog.1 mph92%30.27 "Hg2 mi
4:20 am12 °FIce fog.1 mph85%30.27 "Hg2 mi
3:50 am12 °FIce fog.1 mph85%30.27 "Hg3 mi
3:20 am12 °FIce fog.1 mph92%30.27 "Hg3 mi
2:50 am12 °FIce fog.1 mph92%30.30 "Hg3 mi
2:20 am14 °FClear.1 mph85%30.30 "Hg4 mi
1:50 am14 °FClear.1 mph85%30.30 "Hg4 mi
1:20 am14 °FClear.1 mph85%30.30 "Hg4 mi
12:50 am14 °FClear.1 mph92%30.30 "Hg4 mi
12:20 am14 °FClear.1 mph92%30.30 "Hg5 mi
11:50 pm
Sat, Jan 21
16 °FClear.2 mph86%30.30 "Hg6 mi
11:20 pm16 °FClear.1 mph93%30.30 "Hg6 mi
10:50 pm16 °FClear.No wind86%30.30 "Hg6 mi
10:20 pm18 °FClear.1 mph86%30.30 "Hg6 mi
9:50 pm19 °FClear.2 mph79%30.33 "Hg10 mi
9:20 pm19 °FClear.2 mph86%30.33 "Hg10 mi
8:50 pm19 °FClear.2 mph86%30.30 "Hg10 mi
8:20 pm21 °FClear.2 mph80%30.33 "Hg10 mi
7:50 pm21 °FClear.2 mph86%30.33 "Hg10 mi
7:20 pm23 °FClear.2 mph80%30.30 "Hg10 mi
6:50 pm23 °FClear.2 mph74%30.30 "Hg10 mi
6:20 pm25 °FClear.2 mph74%30.30 "Hg10 mi
5:50 pm25 °FClear.2 mph74%30.30 "Hg6 mi
5:20 pm27 °FClear.1 mph69%30.30 "Hg5 mi
4:50 pm30 °FClear.1 mph64%30.30 "Hg5 mi
4:20 pm32 °FSunny.1 mph60%30.30 "Hg10 mi
3:50 pm32 °FSunny.1 mph60%30.30 "Hg10 mi
3:20 pm32 °FSunny.1 mph60%30.30 "Hg10 mi
2:50 pm32 °FSunny.1 mph60%30.30 "Hg10 mi
2:20 pm30 °FClear.2 mph59%30.33 "Hg6 mi
1:50 pm28 °FClear.2 mph64%30.33 "Hg6 mi
1:20 pm27 °FClear.2 mph69%30.33 "Hg6 mi
12:50 pm27 °FClear.2 mph69%30.33 "Hg5 mi
12:20 pm27 °FClear.2 mph64%30.36 "Hg5 mi
11:50 am25 °FClear.2 mph69%30.36 "Hg4 mi
11:20 am21 °FClear.2 mph74%30.36 "Hg4 mi
10:50 am19 °FClear.2 mph79%30.39 "Hg4 mi
10:20 am16 °FClear.2 mph86%30.39 "Hg4 mi
9:50 am14 °FClear.2 mph92%30.39 "Hg4 mi
9:20 am14 °FClear.2 mph85%30.39 "Hg4 mi
8:50 am12 °FIce fog.1 mph92%30.39 "Hg3 mi
8:20 am10 °FIce fog.1 mph92%30.36 "Hg3 mi
7:50 am10 °FClear.1 mph92%30.36 "Hg4 mi
7:20 am10 °FClear.1 mph92%30.36 "Hg6 mi
Weather by CustomWeather, © 2017

See weather overviewHow to use our weather pages